Home   Weather   Braunschweig   Past weeks

Flag for Germany Past Weather in Braunschweig, Lower Saxony, Germany — Yesterday and Last 2 Weeks

Now
66 °F

Partly cloudy.


Feels Like: 66 °F
Forecast: 60 / 70 °F
Wind: 5 mph from West

Location: Braunschweig Wolfsburg

Current Time: Aug 17, 2017 at 11:51:32 pm

Latest Report: Aug 17, 2017 at 9:50 pm


Visibility: N/A

Pressure: 29.98 "Hg

Humidity: 100%

Dew Point: 66 °F

Location of BraunschweigLocation

Past Weather in Braunschweig — Graph

°F

Braunschweig Temperature Yesterday

Maximum temperature yesterday: 75 °F (at 3:50 pm)
Minimum temperature yesterday: 63 °F (at 6:50 am)
Average temperature yesterday: 69 °F

High & Low Weather Summary for the Past Weeks

 TemperatureHumidityPressure
High82 °F (Aug 15, 2:20 pm)100% (Aug 3, 6:50 am)30.24 "Hg (Aug 3, 6:50 am)
Low50 °F (Aug 7, 6:50 am)39% (Aug 7, 3:20 pm)29.77 "Hg (Aug 3, 2:50 pm)
Average68 °F74%30.00 "Hg
* Reported Aug 2 9:20 pm — Aug 17 9:50 pm, Braunschweig. Weather by CustomWeather, © 2017

Note: Actual official high and low records may vary slightly from our data, if they occured in-between our weather recording intervals... More about our weather records

Advertising

Braunschweig Weather History for the Previous 24 Hours

Scroll right to see more
 ConditionsComfort  
Time TempWeatherWind HumidityBarometerVisibility
9:50 pm
Thu, Aug 17
66 °FPartly cloudy.5 mph100%29.98 "HgN/A
9:20 pm66 °FClear.No wind100%29.95 "Hg10 mi
8:50 pm68 °FMostly cloudy.3 mph100%29.95 "HgN/A
8:20 pm70 °FPartly sunny.9 mph100%29.98 "HgN/A
7:20 pm70 °FOvercast.6 mph100%29.95 "HgN/A
6:50 pm72 °FLight rain. Clear.8 mph83%29.95 "HgN/A
6:20 pm75 °FLight rain. Clear.8 mph65%29.95 "HgN/A
5:50 pm75 °FSunny.7 mph61%29.95 "Hg10 mi
5:20 pm77 °FPartly sunny.6 mph61%29.95 "HgN/A
4:50 pm77 °FSunny.10 mph57%29.98 "Hg10 mi
4:20 pm77 °FSunny.10 mph57%29.98 "Hg10 mi
3:50 pm77 °FPassing clouds.9 mph54%29.98 "HgN/A
3:20 pm77 °FSunny.10 mph54%29.98 "Hg10 mi
2:50 pm79 °FSunny.10 mph54%29.98 "Hg10 mi
2:20 pm77 °FPassing clouds.9 mph54%30.01 "HgN/A
1:50 pm77 °FPassing clouds.12 mph61%30.01 "HgN/A
1:20 pm75 °FPartly sunny.7 mph78%30.01 "HgN/A
12:50 pm75 °FPassing clouds.8 mph74%30.01 "HgN/A
12:20 pm73 °FPassing clouds.9 mph83%30.01 "HgN/A
11:50 am72 °FPassing clouds.7 mph88%30.04 "HgN/A
11:20 am70 °FSunny.9 mph94%30.04 "Hg10 mi
10:50 am70 °FBroken clouds.9 mph100%30.04 "HgN/A
10:20 am70 °FBroken clouds.8 mph100%30.04 "HgN/A
9:50 am66 °FPartly sunny.6 mph100%30.07 "HgN/A
9:20 am64 °FDrizzle. Mostly cloudy.7 mph100%30.07 "HgN/A
8:50 am64 °FSunny.8 mph100%30.07 "Hg10 mi
8:20 am64 °FSunny.7 mph100%30.07 "Hg10 mi
7:50 am63 °FSunny.6 mph100%30.07 "Hg10 mi
7:20 am59 °FSunny.7 mph100%30.07 "Hg10 mi
6:50 am57 °FClear.7 mph100%30.07 "Hg5 mi
Weather by CustomWeather, © 2017

See weather overviewHow to use our weather pages